date,time,water_lv
2020-12-01,00:00:00,9.29
2020-12-01,00:10:00,9.29
2020-12-01,00:20:00,9.28
2020-12-01,00:30:00,9.28
2020-12-01,00:40:00,9.28
2020-12-01,00:50:00,9.27
2020-12-01,01:00:00,9.27
2020-12-01,01:10:00,9.27
2020-12-01,01:20:00,9.27
2020-12-01,01:30:00,9.26
2020-12-01,01:40:00,9.26
2020-12-01,01:50:00,9.26
2020-12-01,02:00:00,9.25
2020-12-01,02:10:00,9.25
2020-12-01,02:20:00,9.25
2020-12-01,02:30:00,9.25
2020-12-01,02:40:00,9.24
2020-12-01,02:50:00,9.24
2020-12-01,03:00:00,9.24
2020-12-01,03:10:00,9.23
2020-12-01,03:20:00,9.23
2020-12-01,03:30:00,9.23
2020-12-01,03:40:00,-
2020-12-01,03:50:00,-
2020-12-01,04:00:00,9.22
2020-12-01,04:10:00,9.22
2020-12-01,04:20:00,9.21
2020-12-01,04:30:00,9.21
2020-12-01,04:40:00,9.21
2020-12-01,04:50:00,9.2
2020-12-01,05:00:00,9.2
2020-12-01,05:10:00,9.2
2020-12-01,05:20:00,9.19
2020-12-01,05:30:00,9.19
2020-12-01,05:40:00,9.19
2020-12-01,05:50:00,9.19
2020-12-01,06:00:00,9.18
2020-12-01,06:10:00,9.18
2020-12-01,06:20:00,9.17
2020-12-01,06:30:00,9.17
2020-12-01,06:40:00,9.17
2020-12-01,06:50:00,9.17
2020-12-01,07:00:00,-
2020-12-01,07:10:00,-
2020-12-01,07:20:00,9.16
2020-12-01,07:30:00,9.16
2020-12-01,07:40:00,9.15
2020-12-01,07:50:00,-
2020-12-01,08:00:00,9.15
2020-12-01,08:10:00,9.14
2020-12-01,08:20:00,9.14
2020-12-01,08:30:00,9.14
2020-12-01,08:40:00,9.14
2020-12-01,08:50:00,9.13
2020-12-01,09:00:00,9.13
2020-12-01,09:10:00,9.13
2020-12-01,09:20:00,9.12
2020-12-01,09:30:00,9.12
2020-12-01,09:40:00,9.12
2020-12-01,09:50:00,9.12
2020-12-01,10:00:00,9.11
2020-12-01,10:10:00,9.11
2020-12-01,10:20:00,9.11
2020-12-01,10:30:00,9.1
2020-12-01,10:40:00,9.1
2020-12-01,10:50:00,9.1
2020-12-01,11:00:00,9.1
2020-12-01,11:10:00,9.09
2020-12-01,11:20:00,9.09
2020-12-01,11:30:00,9.09
2020-12-01,11:40:00,9.08
2020-12-01,11:50:00,9.09
2020-12-01,12:00:00,9.08
2020-12-01,12:10:00,9.08
2020-12-01,12:20:00,9.07
2020-12-01,12:30:00,9.07
2020-12-01,12:40:00,9.07
2020-12-01,12:50:00,9.07
2020-12-01,13:00:00,9.07
2020-12-01,13:10:00,9.07
2020-12-01,13:20:00,9.06
2020-12-01,13:30:00,9.06
2020-12-01,13:40:00,9.06
2020-12-01,13:50:00,9.05
2020-12-01,14:00:00,9.05
2020-12-01,14:10:00,9.05
2020-12-01,14:20:00,9.05
2020-12-01,14:30:00,9.05
2020-12-01,14:40:00,9.05
2020-12-01,14:50:00,9.05
2020-12-01,15:00:00,9.04
2020-12-01,15:10:00,9.04
2020-12-01,15:20:00,9.04
2020-12-01,15:30:00,9.04
2020-12-01,15:40:00,9.04
2020-12-01,15:50:00,9.04
2020-12-01,16:00:00,9.04
2020-12-01,16:10:00,9.04
2020-12-01,16:20:00,9.04
2020-12-01,16:30:00,9.03
2020-12-01,16:40:00,9.03
2020-12-01,16:50:00,9.03
2020-12-01,17:00:00,9.03
2020-12-01,17:10:00,9.03
2020-12-01,17:20:00,9.03
2020-12-01,17:30:00,9.03
2020-12-01,17:40:00,9.03
2020-12-01,17:50:00,9.03
2020-12-01,18:00:00,9.03
2020-12-01,18:10:00,9.03
2020-12-01,18:20:00,9.03
2020-12-01,18:30:00,9.03
2020-12-01,18:40:00,9.03
2020-12-01,18:50:00,9.03
2020-12-01,19:00:00,9.03
2020-12-01,19:10:00,9.03
2020-12-01,19:20:00,9.03
2020-12-01,19:30:00,9.03
2020-12-01,19:40:00,9.03
2020-12-01,19:50:00,9.03
2020-12-01,20:00:00,9.03
2020-12-01,20:10:00,9.03
2020-12-01,20:20:00,9.03
2020-12-01,20:30:00,9.03
2020-12-01,20:40:00,9.03
2020-12-01,20:50:00,9.03
2020-12-01,21:00:00,9.03
2020-12-01,21:10:00,9.03
2020-12-01,21:20:00,9.04
2020-12-01,21:30:00,9.04
2020-12-01,21:40:00,9.04
2020-12-01,21:50:00,9.04
2020-12-01,22:00:00,9.04
2020-12-01,22:10:00,9.04
2020-12-01,22:20:00,9.05
2020-12-01,22:30:00,9.05
2020-12-01,22:40:00,9.05
2020-12-01,22:50:00,9.05
2020-12-01,23:00:00,9.05
2020-12-01,23:10:00,9.06
2020-12-01,23:20:00,9.06
2020-12-01,23:30:00,9.06
2020-12-01,23:40:00,9.06
2020-12-01,23:50:00,9.07
2020-12-02,00:00:00,9.07
2020-12-02,00:10:00,9.07
2020-12-02,00:20:00,9.07
2020-12-02,00:30:00,9.08
2020-12-02,00:40:00,9.08
2020-12-02,00:50:00,9.08
2020-12-02,01:00:00,9.09
2020-12-02,01:10:00,9.09
2020-12-02,01:20:00,9.09
2020-12-02,01:30:00,9.09
2020-12-02,01:40:00,9.1
2020-12-02,01:50:00,9.1
2020-12-02,02:00:00,9.11
2020-12-02,02:10:00,9.11
2020-12-02,02:20:00,9.11
2020-12-02,02:30:00,9.12
2020-12-02,02:40:00,9.12
2020-12-02,02:50:00,9.12
2020-12-02,03:00:00,9.12
2020-12-02,03:10:00,9.13
2020-12-02,03:20:00,9.13
2020-12-02,03:30:00,9.14
2020-12-02,03:40:00,9.13
2020-12-02,03:50:00,9.14
2020-12-02,04:00:00,9.14
2020-12-02,04:10:00,9.15
2020-12-02,04:20:00,9.15
2020-12-02,04:30:00,9.15
2020-12-02,04:40:00,9.16
2020-12-02,04:50:00,9.16
2020-12-02,05:00:00,9.16
2020-12-02,05:10:00,9.17
2020-12-02,05:20:00,9.17
2020-12-02,05:30:00,9.18
2020-12-02,05:40:00,9.18
2020-12-02,05:50:00,9.18
2020-12-02,06:00:00,9.19
2020-12-02,06:10:00,9.18
2020-12-02,06:20:00,9.19
2020-12-02,06:30:00,9.2
2020-12-02,06:40:00,9.2
2020-12-02,06:50:00,9.21
2020-12-02,07:00:00,9.21
2020-12-02,07:10:00,9.21
2020-12-02,07:20:00,9.22
2020-12-02,07:30:00,9.23
2020-12-02,07:40:00,9.23
2020-12-02,07:50:00,9.25
2020-12-02,08:00:00,9.25
2020-12-02,08:10:00,9.26
2020-12-02,08:20:00,9.27
2020-12-02,08:30:00,9.27
2020-12-02,08:40:00,9.29
2020-12-02,08:50:00,9.28
2020-12-02,09:00:00,9.31
2020-12-02,09:10:00,9.31
2020-12-02,09:20:00,9.32
2020-12-02,09:30:00,9.33
2020-12-02,09:40:00,9.34
2020-12-02,09:50:00,9.35
2020-12-02,10:00:00,9.36
2020-12-02,10:10:00,9.37
2020-12-02,10:20:00,-
2020-12-02,10:30:00,9.39
2020-12-02,10:40:00,9.4
2020-12-02,10:50:00,9.42
2020-12-02,11:00:00,9.43
2020-12-02,11:10:00,9.45
2020-12-02,11:20:00,9.46
2020-12-02,11:30:00,9.47
2020-12-02,11:40:00,9.5
2020-12-02,11:50:00,9.51
2020-12-02,12:00:00,9.53
2020-12-02,12:10:00,9.55
2020-12-02,12:20:00,-
2020-12-02,12:30:00,-
2020-12-02,12:40:00,9.61
2020-12-02,12:50:00,-
2020-12-02,13:00:00,-
2020-12-02,13:10:00,-
2020-12-02,13:20:00,-
2020-12-02,13:30:00,-
2020-12-02,13:40:00,9.73
2020-12-02,13:50:00,9.75
2020-12-02,14:00:00,9.78
2020-12-02,14:10:00,9.8
2020-12-02,14:20:00,9.82
2020-12-02,14:30:00,9.85
2020-12-02,14:40:00,9.87
2020-12-02,14:50:00,9.89
2020-12-02,15:00:00,9.92
2020-12-02,15:10:00,9.94
2020-12-02,15:20:00,9.98
2020-12-02,15:30:00,10
2020-12-02,15:40:00,10.02
2020-12-02,15:50:00,10.05
2020-12-02,16:00:00,10.08
2020-12-02,16:10:00,10.11
2020-12-02,16:20:00,10.13
2020-12-02,16:30:00,10.16
2020-12-02,16:40:00,10.19
2020-12-02,16:50:00,10.21
2020-12-02,17:00:00,10.24
2020-12-02,17:10:00,10.27
2020-12-02,17:20:00,10.29
2020-12-02,17:30:00,10.32
2020-12-02,17:40:00,10.35
2020-12-02,17:50:00,10.38
2020-12-02,18:00:00,10.41
2020-12-02,18:10:00,10.43
2020-12-02,18:20:00,10.46
2020-12-02,18:30:00,10.49
2020-12-02,18:40:00,10.52
2020-12-02,18:50:00,10.55
2020-12-02,19:00:00,10.57
2020-12-02,19:10:00,10.6
2020-12-02,19:20:00,10.62
2020-12-02,19:30:00,10.64
2020-12-02,19:40:00,10.67
2020-12-02,19:50:00,10.69
2020-12-02,20:00:00,10.72
2020-12-02,20:10:00,10.75
2020-12-02,20:20:00,10.77
2020-12-02,20:30:00,10.79
2020-12-02,20:40:00,10.81
2020-12-02,20:50:00,10.83
2020-12-02,21:00:00,10.85
2020-12-02,21:10:00,10.87
2020-12-02,21:20:00,10.89
2020-12-02,21:30:00,10.91
2020-12-02,21:40:00,10.93
2020-12-02,21:50:00,10.94
2020-12-02,22:00:00,10.96
2020-12-02,22:10:00,10.98
2020-12-02,22:20:00,10.99
2020-12-02,22:30:00,11.01
2020-12-02,22:40:00,11.02
2020-12-02,22:50:00,11.03
2020-12-02,23:00:00,11.05
2020-12-02,23:10:00,11.06
2020-12-02,23:20:00,11.07
2020-12-02,23:30:00,11.08
2020-12-02,23:40:00,11.09
2020-12-02,23:50:00,11.1
2020-12-03,00:00:00,11.11
2020-12-03,00:10:00,11.12
2020-12-03,00:20:00,11.13
2020-12-03,00:30:00,11.14
2020-12-03,00:40:00,11.15
2020-12-03,00:50:00,11.15
2020-12-03,01:00:00,11.17
2020-12-03,01:10:00,11.17
2020-12-03,01:20:00,11.18
2020-12-03,01:30:00,11.19
2020-12-03,01:40:00,11.2
2020-12-03,01:50:00,11.21
2020-12-03,02:00:00,11.21
2020-12-03,02:10:00,11.22
2020-12-03,02:20:00,11.22
2020-12-03,02:30:00,11.23
2020-12-03,02:40:00,11.24
2020-12-03,02:50:00,11.25
2020-12-03,03:00:00,11.26
2020-12-03,03:10:00,11.26
2020-12-03,03:20:00,11.26
2020-12-03,03:30:00,11.28
2020-12-03,03:40:00,11.28
2020-12-03,03:50:00,11.28
2020-12-03,04:00:00,11.29
2020-12-03,04:10:00,11.3
2020-12-03,04:20:00,11.31
2020-12-03,04:30:00,11.31
2020-12-03,04:40:00,11.31
2020-12-03,04:50:00,11.32
2020-12-03,05:00:00,11.33
2020-12-03,05:10:00,11.33
2020-12-03,05:20:00,11.33
2020-12-03,05:30:00,11.34
2020-12-03,05:40:00,11.35
2020-12-03,05:50:00,11.36
2020-12-03,06:00:00,11.36
2020-12-03,06:10:00,11.36
2020-12-03,06:20:00,11.37
2020-12-03,06:30:00,11.37
2020-12-03,06:40:00,11.37
2020-12-03,06:50:00,11.39
2020-12-03,07:00:00,11.39
2020-12-03,07:10:00,11.39
2020-12-03,07:20:00,11.39
2020-12-03,07:30:00,11.4
2020-12-03,07:40:00,11.4
2020-12-03,07:50:00,11.41
2020-12-03,08:00:00,11.42
2020-12-03,08:10:00,11.42
2020-12-03,08:20:00,11.42
2020-12-03,08:30:00,11.43
2020-12-03,08:40:00,11.43
2020-12-03,08:50:00,11.44
2020-12-03,09:00:00,11.44
2020-12-03,09:10:00,11.45
2020-12-03,09:20:00,11.43
2020-12-03,09:30:00,11.45
2020-12-03,09:40:00,11.46
2020-12-03,09:50:00,11.46
2020-12-03,10:00:00,11.47
2020-12-03,10:10:00,11.47
2020-12-03,10:20:00,11.48
2020-12-03,10:30:00,11.48
2020-12-03,10:40:00,11.48
2020-12-03,10:50:00,11.49
2020-12-03,11:00:00,11.49
2020-12-03,11:10:00,11.5
2020-12-03,11:20:00,11.5
2020-12-03,11:30:00,11.51
2020-12-03,11:40:00,11.51
2020-12-03,11:50:00,11.51
2020-12-03,12:00:00,11.52
2020-12-03,12:10:00,11.52
2020-12-03,12:20:00,11.52
2020-12-03,12:30:00,11.54
2020-12-03,12:40:00,11.54
2020-12-03,12:50:00,11.54
2020-12-03,13:00:00,11.55
2020-12-03,13:10:00,11.55
2020-12-03,13:20:00,11.55
2020-12-03,13:30:00,11.55
2020-12-03,13:40:00,11.56
2020-12-03,13:50:00,11.57
2020-12-03,14:00:00,11.57
2020-12-03,14:10:00,11.58
2020-12-03,14:20:00,11.59
2020-12-03,14:30:00,11.59
2020-12-03,14:40:00,11.59
2020-12-03,14:50:00,11.59
2020-12-03,15:00:00,11.6
2020-12-03,15:10:00,11.61
2020-12-03,15:20:00,11.62
2020-12-03,15:30:00,11.62
2020-12-03,15:40:00,11.63
2020-12-03,15:50:00,11.63
2020-12-03,16:00:00,11.64
2020-12-03,16:10:00,11.64
2020-12-03,16:20:00,11.65
2020-12-03,16:30:00,11.65
2020-12-03,16:40:00,11.66
2020-12-03,16:50:00,11.67
2020-12-03,17:00:00,11.67
2020-12-03,17:10:00,11.68
2020-12-03,17:20:00,11.69
2020-12-03,17:30:00,11.69
2020-12-03,17:40:00,11.69
2020-12-03,17:50:00,11.7
2020-12-03,18:00:00,11.7
2020-12-03,18:10:00,11.71
2020-12-03,18:20:00,11.71
2020-12-03,18:30:00,11.72
2020-12-03,18:40:00,11.73
2020-12-03,18:50:00,11.73
2020-12-03,19:00:00,11.74
2020-12-03,19:10:00,11.75
2020-12-03,19:20:00,11.75
2020-12-03,19:30:00,11.76
2020-12-03,19:40:00,11.76
2020-12-03,19:50:00,11.77
2020-12-03,20:00:00,11.77
2020-12-03,20:10:00,11.78
2020-12-03,20:20:00,11.78
2020-12-03,20:30:00,11.79
2020-12-03,20:40:00,11.8
2020-12-03,20:50:00,11.8
2020-12-03,21:00:00,11.81
2020-12-03,21:10:00,11.81
2020-12-03,21:20:00,11.82
2020-12-03,21:30:00,11.83
2020-12-03,21:40:00,11.83
2020-12-03,21:50:00,11.84
2020-12-03,22:00:00,11.85
2020-12-03,22:10:00,11.85
2020-12-03,22:20:00,11.86
2020-12-03,22:30:00,11.87
2020-12-03,22:40:00,11.87
2020-12-03,22:50:00,-
2020-12-03,23:00:00,11.89
2020-12-03,23:10:00,11.89
2020-12-03,23:20:00,11.9
2020-12-03,23:30:00,11.91
2020-12-03,23:40:00,11.91
2020-12-03,23:50:00,11.92
2020-12-04,00:00:00,11.92
2020-12-04,00:10:00,11.93
2020-12-04,00:20:00,11.93
2020-12-04,00:30:00,11.94
2020-12-04,00:40:00,11.95
2020-12-04,00:50:00,11.96
2020-12-04,01:00:00,11.96
2020-12-04,01:10:00,11.97
2020-12-04,01:20:00,11.97
2020-12-04,01:30:00,11.98
2020-12-04,01:40:00,11.99
2020-12-04,01:50:00,12
2020-12-04,02:00:00,12
2020-12-04,02:10:00,12.01
2020-12-04,02:20:00,12.01
2020-12-04,02:30:00,12.02
2020-12-04,02:40:00,12.03
2020-12-04,02:50:00,12.03
2020-12-04,03:00:00,12.04
2020-12-04,03:10:00,12.04
2020-12-04,03:20:00,12.05
2020-12-04,03:30:00,12.06
2020-12-04,03:40:00,12.06
2020-12-04,03:50:00,12.07
2020-12-04,04:00:00,12.07
2020-12-04,04:10:00,12.08
2020-12-04,04:20:00,12.09
2020-12-04,04:30:00,12.09
2020-12-04,04:40:00,12.1
2020-12-04,04:50:00,12.11
2020-12-04,05:00:00,12.11
2020-12-04,05:10:00,12.11
2020-12-04,05:20:00,12.12
2020-12-04,05:30:00,12.13
2020-12-04,05:40:00,12.13
2020-12-04,05:50:00,12.14
2020-12-04,06:00:00,12.14
2020-12-04,06:10:00,12.15
2020-12-04,06:20:00,12.16
2020-12-04,06:30:00,12.16
2020-12-04,06:40:00,12.16
2020-12-04,06:50:00,12.17
2020-12-04,07:00:00,12.18
2020-12-04,07:10:00,12.18
2020-12-04,07:20:00,12.19
2020-12-04,07:30:00,12.19
2020-12-04,07:40:00,12.2
2020-12-04,07:50:00,12.2
2020-12-04,08:00:00,12.2
2020-12-04,08:10:00,12.21
2020-12-04,08:20:00,12.22
2020-12-04,08:30:00,12.21
2020-12-04,08:40:00,12.22
2020-12-04,08:50:00,12.22
2020-12-04,09:00:00,12.23
2020-12-04,09:10:00,12.24
2020-12-04,09:20:00,12.24
2020-12-04,09:30:00,12.24
2020-12-04,09:40:00,12.24
2020-12-04,09:50:00,12.25
2020-12-04,10:00:00,12.25
2020-12-04,10:10:00,12.26
2020-12-04,10:20:00,12.26
2020-12-04,10:30:00,12.26
2020-12-04,10:40:00,12.26
2020-12-04,10:50:00,12.27
2020-12-04,11:00:00,12.27
2020-12-04,11:10:00,12.27
2020-12-04,11:20:00,12.27
2020-12-04,11:30:00,12.28
2020-12-04,11:40:00,12.28
2020-12-04,11:50:00,12.28
2020-12-04,12:00:00,12.29
2020-12-04,12:10:00,12.29
2020-12-04,12:20:00,12.29
2020-12-04,12:30:00,12.3
2020-12-04,12:40:00,12.3
2020-12-04,12:50:00,12.31
2020-12-04,13:00:00,12.31
2020-12-04,13:10:00,12.31
2020-12-04,13:20:00,12.32
2020-12-04,13:30:00,12.32
2020-12-04,13:40:00,12.32
2020-12-04,13:50:00,12.32
2020-12-04,14:00:00,12.32
2020-12-04,14:10:00,12.33
2020-12-04,14:20:00,12.33
2020-12-04,14:30:00,12.33
2020-12-04,14:40:00,12.33
2020-12-04,14:50:00,12.34
2020-12-04,15:00:00,12.34
2020-12-04,15:10:00,12.34
2020-12-04,15:20:00,12.35
2020-12-04,15:30:00,12.35
2020-12-04,15:40:00,12.35
2020-12-04,15:50:00,12.34
2020-12-04,16:00:00,12.35
2020-12-04,16:10:00,12.36
2020-12-04,16:20:00,12.36
2020-12-04,16:30:00,12.36
2020-12-04,16:40:00,12.36
2020-12-04,16:50:00,12.36
2020-12-04,17:00:00,12.36
2020-12-04,17:10:00,12.37
2020-12-04,17:20:00,12.37
2020-12-04,17:30:00,12.37
2020-12-04,17:40:00,12.38
2020-12-04,17:50:00,12.38
2020-12-04,18:00:00,12.37
2020-12-04,18:10:00,12.39
2020-12-04,18:20:00,12.39
2020-12-04,18:30:00,12.39
2020-12-04,18:40:00,12.39
2020-12-04,18:50:00,12.39
2020-12-04,19:00:00,12.4
2020-12-04,19:10:00,12.4
2020-12-04,19:20:00,12.4
2020-12-04,19:30:00,12.4
2020-12-04,19:40:00,12.4
2020-12-04,19:50:00,12.41
2020-12-04,20:00:00,12.4
2020-12-04,20:10:00,12.41
2020-12-04,20:20:00,12.41
2020-12-04,20:30:00,12.41
2020-12-04,20:40:00,12.41
2020-12-04,20:50:00,12.42
2020-12-04,21:00:00,12.42
2020-12-04,21:10:00,12.42
2020-12-04,21:20:00,12.42
2020-12-04,21:30:00,12.43
2020-12-04,21:40:00,12.42
2020-12-04,21:50:00,12.43
2020-12-04,22:00:00,12.43
2020-12-04,22:10:00,12.43
2020-12-04,22:20:00,12.43
2020-12-04,22:30:00,12.43
2020-12-04,22:40:00,12.44
2020-12-04,22:50:00,12.43
2020-12-04,23:00:00,12.44
2020-12-04,23:10:00,12.44
2020-12-04,23:20:00,12.44
2020-12-04,23:30:00,12.44
2020-12-04,23:40:00,12.45
2020-12-04,23:50:00,12.45
2020-12-05,00:00:00,12.44
2020-12-05,00:10:00,12.44
2020-12-05,00:20:00,12.45
2020-12-05,00:30:00,12.45
2020-12-05,00:40:00,12.45
2020-12-05,00:50:00,12.45
2020-12-05,01:00:00,12.45
2020-12-05,01:10:00,12.45
2020-12-05,01:20:00,12.46
2020-12-05,01:30:00,12.46
2020-12-05,01:40:00,12.46
2020-12-05,01:50:00,12.46
2020-12-05,02:00:00,12.46
2020-12-05,02:10:00,12.46
2020-12-05,02:20:00,12.46
2020-12-05,02:30:00,12.46
2020-12-05,02:40:00,12.46
2020-12-05,02:50:00,12.46
2020-12-05,03:00:00,12.46
2020-12-05,03:10:00,12.46
2020-12-05,03:20:00,12.47
2020-12-05,03:30:00,12.47
2020-12-05,03:40:00,12.47
2020-12-05,03:50:00,12.47
2020-12-05,04:00:00,12.47
2020-12-05,04:10:00,12.48
2020-12-05,04:20:00,12.48
2020-12-05,04:30:00,12.48
2020-12-05,04:40:00,12.47
2020-12-05,04:50:00,12.48
2020-12-05,05:00:00,12.48
2020-12-05,05:10:00,12.49
2020-12-05,05:20:00,12.48
2020-12-05,05:30:00,12.48
2020-12-05,05:40:00,12.48
2020-12-05,05:50:00,12.49
2020-12-05,06:00:00,12.48
2020-12-05,06:10:00,12.48
2020-12-05,06:20:00,12.48
2020-12-05,06:30:00,12.48
2020-12-05,06:40:00,12.48
2020-12-05,06:50:00,12.48
2020-12-05,07:00:00,12.49
2020-12-05,07:10:00,12.48
2020-12-05,07:20:00,12.48
2020-12-05,07:30:00,12.48
2020-12-05,07:40:00,12.48
2020-12-05,07:50:00,12.48
2020-12-05,08:00:00,12.5
2020-12-05,08:10:00,12.49
2020-12-05,08:20:00,12.48
2020-12-05,08:30:00,12.49
2020-12-05,08:40:00,12.48
2020-12-05,08:50:00,12.48
2020-12-05,09:00:00,12.48
2020-12-05,09:10:00,12.48
2020-12-05,09:20:00,12.48
2020-12-05,09:30:00,12.49
2020-12-05,09:40:00,12.48
2020-12-05,09:50:00,12.48
2020-12-05,10:00:00,12.48
2020-12-05,10:10:00,12.48
2020-12-05,10:20:00,12.48
2020-12-05,10:30:00,12.49
2020-12-05,10:40:00,12.49
2020-12-05,10:50:00,12.49
2020-12-05,11:00:00,12.49
2020-12-05,11:10:00,12.49
2020-12-05,11:20:00,12.49
2020-12-05,11:30:00,12.48
2020-12-05,11:40:00,12.49
2020-12-05,11:50:00,12.48
2020-12-05,12:00:00,12.49
2020-12-05,12:10:00,12.49
2020-12-05,12:20:00,12.49
2020-12-05,12:30:00,12.49
2020-12-05,12:40:00,12.49
2020-12-05,12:50:00,12.49
2020-12-05,13:00:00,12.48
2020-12-05,13:10:00,12.48
2020-12-05,13:20:00,12.49
2020-12-05,13:30:00,12.49
2020-12-05,13:40:00,12.48
2020-12-05,13:50:00,12.48
2020-12-05,14:00:00,12.48
2020-12-05,14:10:00,12.48
2020-12-05,14:20:00,12.48
2020-12-05,14:30:00,12.48
2020-12-05,14:40:00,12.48
2020-12-05,14:50:00,12.48
2020-12-05,15:00:00,12.48
2020-12-05,15:10:00,12.48
2020-12-05,15:20:00,12.48
2020-12-05,15:30:00,12.48
2020-12-05,15:40:00,12.48
2020-12-05,15:50:00,12.48
2020-12-05,16:00:00,12.48
2020-12-05,16:10:00,12.48
2020-12-05,16:20:00,12.48
2020-12-05,16:30:00,12.48
2020-12-05,16:40:00,12.48
2020-12-05,16:50:00,12.48
2020-12-05,17:00:00,12.48
2020-12-05,17:10:00,12.47
2020-12-05,17:20:00,12.47
2020-12-05,17:30:00,12.47
2020-12-05,17:40:00,12.48
2020-12-05,17:50:00,12.47
2020-12-05,18:00:00,12.47
2020-12-05,18:10:00,12.47
2020-12-05,18:20:00,12.48
2020-12-05,18:30:00,12.47
2020-12-05,18:40:00,12.47
2020-12-05,18:50:00,12.47
2020-12-05,19:00:00,12.47
2020-12-05,19:10:00,12.47
2020-12-05,19:20:00,12.47
2020-12-05,19:30:00,12.47
2020-12-05,19:40:00,12.47
2020-12-05,19:50:00,12.47
2020-12-05,20:00:00,12.47
2020-12-05,20:10:00,12.46
2020-12-05,20:20:00,12.47
2020-12-05,20:30:00,12.47
2020-12-05,20:40:00,12.46
2020-12-05,20:50:00,12.46
2020-12-05,21:00:00,12.46
2020-12-05,21:10:00,12.46
2020-12-05,21:20:00,12.46
2020-12-05,21:30:00,12.46
2020-12-05,21:40:00,12.45
2020-12-05,21:50:00,12.45
2020-12-05,22:00:00,12.45
2020-12-05,22:10:00,12.45
2020-12-05,22:20:00,12.45
2020-12-05,22:30:00,12.45
2020-12-05,22:40:00,12.45
2020-12-05,22:50:00,12.45
2020-12-05,23:00:00,12.45
2020-12-05,23:10:00,12.45
2020-12-05,23:20:00,12.44
2020-12-05,23:30:00,12.44
2020-12-05,23:40:00,12.44
2020-12-05,23:50:00,12.44
2020-12-06,00:00:00,12.44
2020-12-06,00:10:00,12.44
2020-12-06,00:20:00,12.44
2020-12-06,00:30:00,12.44
2020-12-06,00:40:00,12.44
2020-12-06,00:50:00,12.43
2020-12-06,01:00:00,12.43
2020-12-06,01:10:00,12.43
2020-12-06,01:20:00,12.43
2020-12-06,01:30:00,12.43
2020-12-06,01:40:00,12.42
2020-12-06,01:50:00,12.42
2020-12-06,02:00:00,12.42
2020-12-06,02:10:00,12.42
2020-12-06,02:20:00,12.42
2020-12-06,02:30:00,12.42
2020-12-06,02:40:00,12.42
2020-12-06,02:50:00,12.41
2020-12-06,03:00:00,12.42
2020-12-06,03:10:00,12.42
2020-12-06,03:20:00,12.41
2020-12-06,03:30:00,12.41
2020-12-06,03:40:00,12.41
2020-12-06,03:50:00,12.41
2020-12-06,04:00:00,12.41
2020-12-06,04:10:00,12.4
2020-12-06,04:20:00,12.4
2020-12-06,04:30:00,12.4
2020-12-06,04:40:00,12.4
2020-12-06,04:50:00,12.4
2020-12-06,05:00:00,12.39
2020-12-06,05:10:00,12.4
2020-12-06,05:20:00,12.39
2020-12-06,05:30:00,12.39
2020-12-06,05:40:00,12.39
2020-12-06,05:50:00,12.39
2020-12-06,06:00:00,12.38
2020-12-06,06:10:00,12.38
2020-12-06,06:20:00,12.38
2020-12-06,06:30:00,12.38
2020-12-06,06:40:00,12.38
2020-12-06,06:50:00,12.38
2020-12-06,07:00:00,12.37
2020-12-06,07:10:00,12.37
2020-12-06,07:20:00,12.37
2020-12-06,07:30:00,12.37
2020-12-06,07:40:00,12.36
2020-12-06,07:50:00,12.36
2020-12-06,08:00:00,12.36
2020-12-06,08:10:00,12.35
2020-12-06,08:20:00,12.36
2020-12-06,08:30:00,12.35
2020-12-06,08:40:00,12.35
2020-12-06,08:50:00,12.35
2020-12-06,09:00:00,12.34
2020-12-06,09:10:00,12.34
2020-12-06,09:20:00,12.34
2020-12-06,09:30:00,12.34
2020-12-06,09:40:00,12.33
2020-12-06,09:50:00,12.33
2020-12-06,10:00:00,12.33
2020-12-06,10:10:00,12.33
2020-12-06,10:20:00,12.33
2020-12-06,10:30:00,12.32
2020-12-06,10:40:00,12.32
2020-12-06,10:50:00,12.31
2020-12-06,11:00:00,12.31
2020-12-06,11:10:00,12.31
2020-12-06,11:20:00,12.31
2020-12-06,11:30:00,12.31
2020-12-06,11:40:00,12.3
2020-12-06,11:50:00,12.31
2020-12-06,12:00:00,12.3
2020-12-06,12:10:00,12.3
2020-12-06,12:20:00,12.3
2020-12-06,12:30:00,12.3
2020-12-06,12:40:00,12.3
2020-12-06,12:50:00,12.29
2020-12-06,13:00:00,12.29
2020-12-06,13:10:00,12.29
2020-12-06,13:20:00,12.28
2020-12-06,13:30:00,12.28
2020-12-06,13:40:00,12.28
2020-12-06,13:50:00,12.27
2020-12-06,14:00:00,12.27
2020-12-06,14:10:00,12.27
2020-12-06,14:20:00,12.27
2020-12-06,14:30:00,12.27
2020-12-06,14:40:00,12.26
2020-12-06,14:50:00,12.26
2020-12-06,15:00:00,12.25
2020-12-06,15:10:00,12.25
2020-12-06,15:20:00,12.25
2020-12-06,15:30:00,12.25
2020-12-06,15:40:00,12.25
2020-12-06,15:50:00,12.25
2020-12-06,16:00:00,12.24
2020-12-06,16:10:00,12.24
2020-12-06,16:20:00,12.24
2020-12-06,16:30:00,12.24
2020-12-06,16:40:00,12.24
2020-12-06,16:50:00,12.23
2020-12-06,17:00:00,12.23
2020-12-06,17:10:00,12.22
2020-12-06,17:20:00,12.22
2020-12-06,17:30:00,12.22
2020-12-06,17:40:00,12.22
2020-12-06,17:50:00,12.22
2020-12-06,18:00:00,12.21
2020-12-06,18:10:00,12.21
2020-12-06,18:20:00,12.21
2020-12-06,18:30:00,12.21
2020-12-06,18:40:00,12.2
2020-12-06,18:50:00,12.2
2020-12-06,19:00:00,12.2
2020-12-06,19:10:00,12.2
2020-12-06,19:20:00,12.2
2020-12-06,19:30:00,12.19
2020-12-06,19:40:00,12.18
2020-12-06,19:50:00,12.19
2020-12-06,20:00:00,12.18
2020-12-06,20:10:00,12.18
2020-12-06,20:20:00,12.18
2020-12-06,20:30:00,12.18
2020-12-06,20:40:00,12.17
2020-12-06,20:50:00,12.17
2020-12-06,21:00:00,12.17
2020-12-06,21:10:00,12.17
2020-12-06,21:20:00,12.16
2020-12-06,21:30:00,12.16
2020-12-06,21:40:00,12.16
2020-12-06,21:50:00,12.15
2020-12-06,22:00:00,12.15
2020-12-06,22:10:00,12.15
2020-12-06,22:20:00,12.15
2020-12-06,22:30:00,12.14
2020-12-06,22:40:00,12.14
2020-12-06,22:50:00,12.14
2020-12-06,23:00:00,12.14
2020-12-06,23:10:00,12.13
2020-12-06,23:20:00,12.13
2020-12-06,23:30:00,12.13
2020-12-06,23:40:00,12.12
2020-12-06,23:50:00,12.12
2020-12-07,00:00:00,12.12
2020-12-07,00:10:00,12.12
2020-12-07,00:20:00,12.12
2020-12-07,00:30:00,12.11
2020-12-07,00:40:00,12.11
2020-12-07,00:50:00,12.1
2020-12-07,01:00:00,12.1
2020-12-07,01:10:00,12.1
2020-12-07,01:20:00,12.1
2020-12-07,01:30:00,12.09
2020-12-07,01:40:00,12.09
2020-12-07,01:50:00,12.09
2020-12-07,02:00:00,12.09
2020-12-07,02:10:00,12.08
2020-12-07,02:20:00,12.08
2020-12-07,02:30:00,12.07
2020-12-07,02:40:00,12.07
2020-12-07,02:50:00,12.07
2020-12-07,03:00:00,12.07
2020-12-07,03:10:00,12.06
2020-12-07,03:20:00,12.06
2020-12-07,03:30:00,12.06
2020-12-07,03:40:00,12.05
2020-12-07,03:50:00,12.05
2020-12-07,04:00:00,12.05
2020-12-07,04:10:00,12.05
2020-12-07,04:20:00,12.05
2020-12-07,04:30:00,12.04
2020-12-07,04:40:00,12.03
2020-12-07,04:50:00,12.03
2020-12-07,05:00:00,12.03
2020-12-07,05:10:00,12.03
2020-12-07,05:20:00,12.03
2020-12-07,05:30:00,12.02
2020-12-07,05:40:00,12.02
2020-12-07,05:50:00,12.02
2020-12-07,06:00:00,12.01
2020-12-07,06:10:00,12.01
2020-12-07,06:20:00,12.01
2020-12-07,06:30:00,12
2020-12-07,06:40:00,12
2020-12-07,06:50:00,11.99
2020-12-07,07:00:00,11.99
2020-12-07,07:10:00,11.99
2020-12-07,07:20:00,11.99
2020-12-07,07:30:00,11.99
2020-12-07,07:40:00,11.98
2020-12-07,07:50:00,11.98
2020-12-07,08:00:00,11.97
2020-12-07,08:10:00,11.97
2020-12-07,08:20:00,11.96
2020-12-07,08:30:00,11.96
2020-12-07,08:40:00,11.96
2020-12-07,08:50:00,11.95
2020-12-07,09:00:00,11.95
2020-12-07,09:10:00,11.94
2020-12-07,09:20:00,11.94
2020-12-07,09:30:00,11.94
2020-12-07,09:40:00,11.94
2020-12-07,09:50:00,11.93
2020-12-07,10:00:00,11.93
2020-12-07,10:10:00,11.93
2020-12-07,10:20:00,11.92
2020-12-07,10:30:00,11.92
2020-12-07,10:40:00,11.92
2020-12-07,10:50:00,11.91
2020-12-07,11:00:00,11.91
2020-12-07,11:10:00,11.91
2020-12-07,11:20:00,11.9
2020-12-07,11:30:00,11.9
2020-12-07,11:40:00,11.9
2020-12-07,11:50:00,11.89